Meath Environmental Platform

Observations for Trim Patrick St

Time AQI Temp °C Hum % Pres Pa CO μg/m³ H₂S μg/m³ NO μg/m³ NO₂ μg/m³ O₃ μg/m³ SO₂ μg/m³ PM1 μg/m³ PM2.5 μg/m³ PM10 μg/m³
Saturday 8 August 2026
08:23 1 19.7 63 85,100 0.14 0 3.11 11.43 22.76 1.36 3.71 7.77 8.55
08:22 1 19.6 64 86,161 0.18 0 3.06 12.02 22 1.66 3.71 7.75 8.53
08:21 1 19.6 64 87,102 0.17 0 3.2 13.24 25.75 1.78 4.57 7.75 8.52
08:20 1 19.5 64 87,928 0.16 0 3.01 11.83 21.71 1.99 3.71 8.48 9.33
08:19 1 19.5 64 88,919 0.15 0 3.2 12.51 25.27 1.18 3.71 7.75 8.53
08:18 1 19.4 64 90,129 0.15 0 3.27 11.68 20.92 1.97 4.57 9.18 10.1
08:17 1 19.3 64 91,157 0.14 0 3.08 11.95 26.64 1.5 3.71 7.72 8.5
08:16 1 19.3 64 92,799 0.16 0 2.85 11.97 21.38 1.42 3.71 6.98 7.68
08:15 1 19.2 64 94,418 0.17 0 3.08 12.72 25.05 1.35 3.71 6.99 7.69
08:14 1 19.2 64 96,572 0.17 0 2.78 12.64 26.52 1.13 3.71 8.44 9.29
08:13 1 19.1 65 99,207 0.19 0 2.52 12.35 26.62 1.36 3.71 8.42 9.26
08:12 1 19.1 65 102,157 0.18 0 2.52 11.76 20.83 1.77 3.71 7.68 8.44
08:11 1 19 65 105,305 0.17 0 2.53 10.68 17.42 1.03 2.86 6.92 7.62
08:10 1 19 64 106,194 0.19 0 2.5 11.89 25.13 0.75 4.57 7.7 8.47
08:09 1 18.9 65 110,252 0.21 0 2.46 12.46 21.63 0.66 3.71 6.94 7.64
08:08 1 18.9 65 114,185 0.19 0 2.55 12.05 21.77 1.23 2.86 6.92 7.61
08:07 1 18.8 65 4,691 0.19 0 2.52 13.19 25.39 0.59 3.71 7.63 8.4
08:06 1 18.8 66 8,788 0.22 0 2.46 16.73 25.32 1.02 4.57 9.06 9.97
08:05 1 18.7 66 12,886 0.21 0 2.54 16.4 24.42 1.42 3.71 7.57 8.33
08:04 1 18.7 66 16,117 0.2 0 2.64 12.56 23.36 1.39 3.71 8.3 9.13